RYR75TJ LPPR-EHEH

Flight info

Callsign RYR75TJ
Flight time 2h 10m
Altitude 24000
Route TURON P600 ASDEB/N0445F360 DCT LOTEE DCT NOVAN DCT AZFIC UN741 ERIGA DCT GODIX DCT PODEM UN873 BAZOS DCT BELDI DCT VEKIN DCT ADUTO N873 FERDI Y18 DENUT
Aircraft B738/M-SDE2E3FGHIRWXY/LB1

Departure

Time 2026-05-04 15:01
Airport Francisco de Sá Carneiro Airport (LPPR)

Arrival

Time 2026-05-04 17:11
Airport Eindhoven Airport (EHEH)
Time Latitude Longitude Altitude Speed Heading
2026-05-04 14:16 41.23776 -8.67295 244 ft 0 kts 49°
2026-05-04 14:17 41.23773 -8.67300 244 ft 0 kts 49°
2026-05-04 14:52 41.23759 -8.67321 243 ft 4 kts 49°
2026-05-04 14:53 41.23741 -8.67348 242 ft 4 kts 49°
2026-05-04 14:53 41.23728 -8.67370 241 ft 4 kts 69°
2026-05-04 14:53 41.23727 -8.67401 239 ft 4 kts 117°
2026-05-04 14:53 41.23734 -8.67417 239 ft 0 kts 126°
2026-05-04 14:56 41.23733 -8.67417 239 ft 0 kts 126°
2026-05-04 14:56 41.23721 -8.67409 239 ft 5 kts 168°
2026-05-04 14:56 41.23667 -8.67438 237 ft 11 kts 210°
2026-05-04 14:57 41.23626 -8.67518 235 ft 11 kts 259°
2026-05-04 14:57 41.23611 -8.67619 232 ft 8 kts 259°
2026-05-04 14:57 41.23605 -8.67659 232 ft 0 kts 259°
2026-05-04 14:58 41.23605 -8.67662 232 ft 1 kts 259°
2026-05-04 14:59 41.23599 -8.67699 233 ft 7 kts 259°
2026-05-04 14:59 41.23591 -8.67783 232 ft 10 kts 283°
2026-05-04 14:59 41.23625 -8.67816 231 ft 0 kts 347°
2026-05-04 15:00 41.23629 -8.67817 231 ft 2 kts 348°
2026-05-04 15:00 41.23757 -8.67851 225 ft 50 kts 348°
2026-05-04 15:01 41.25284 -8.68217 252 ft 161 kts 347°
2026-05-04 15:01 41.26393 -8.68455 875 ft 162 kts 345°
2026-05-04 15:01 41.27479 -8.68734 1662 ft 163 kts 343°
2026-05-04 15:01 41.28687 -8.69088 2040 ft 191 kts 344°
2026-05-04 15:02 41.30031 -8.69472 2541 ft 205 kts 345°
2026-05-04 15:02 41.31447 -8.69863 3120 ft 211 kts 345°
2026-05-04 15:02 41.32951 -8.70241 3540 ft 233 kts 346°
2026-05-04 15:02 41.34611 -8.70673 4004 ft 249 kts 345°
2026-05-04 15:03 41.36338 -8.71148 4797 ft 255 kts 345°
2026-05-04 15:03 41.38089 -8.71635 5613 ft 259 kts 345°
2026-05-04 15:03 41.39871 -8.72072 6417 ft 264 kts 353°
2026-05-04 15:03 41.41730 -8.71835 7106 ft 273 kts
2026-05-04 15:04 41.43588 -8.71361 7872 ft 276 kts
2026-05-04 15:04 41.45473 -8.70874 8589 ft 280 kts
2026-05-04 15:04 41.47406 -8.70385 9279 ft 285 kts
2026-05-04 15:04 41.49361 -8.69900 10016 ft 288 kts
2026-05-04 15:05 41.51340 -8.69418 10461 ft 301 kts
2026-05-04 15:05 41.53481 -8.68908 10663 ft 322 kts
2026-05-04 15:05 41.55753 -8.68370 11156 ft 332 kts
2026-05-04 15:05 41.58038 -8.67829 11870 ft 335 kts
2026-05-04 15:06 41.60330 -8.67288 12624 ft 338 kts
2026-05-04 15:06 41.62662 -8.66739 13381 ft 342 kts
2026-05-04 15:06 41.65012 -8.66188 14113 ft 345 kts
2026-05-04 15:07 41.69802 -8.65065 15507 ft 353 kts
2026-05-04 15:07 41.72207 -8.64501 16214 ft 357 kts
2026-05-04 15:07 41.74672 -8.63923 16898 ft 362 kts
2026-05-04 15:07 41.77168 -8.63337 17587 ft 366 kts
2026-05-04 15:08 41.79693 -8.62745 18277 ft 370 kts
2026-05-04 15:08 41.82243 -8.62145 18863 ft 374 kts
2026-05-04 15:08 41.84822 -8.61538 19434 ft 378 kts
2026-05-04 15:08 41.87426 -8.60925 20015 ft 381 kts
2026-05-04 15:09 41.90049 -8.60307 20597 ft 385 kts
2026-05-04 15:09 41.92696 -8.59683 21168 ft 388 kts
2026-05-04 15:09 41.95371 -8.59052 21728 ft 392 kts
2026-05-04 15:10 42.00691 -8.56987 22833 ft 410 kts 22°
2026-05-04 15:10 42.03159 -8.54961 23340 ft 419 kts 30°
2026-05-04 15:10 42.07919 -8.50287 24199 ft 428 kts 32°
2026-05-04 15:11 42.09504 -8.48699 24522 ft 429 kts 32°
2026-05-04 15:11 42.12719 -8.45485 25149 ft 431 kts 32°
2026-05-04 15:11 42.14324 -8.43887 25442 ft 434 kts 32°
2026-05-04 15:11 42.16761 -8.41471 25861 ft 437 kts 32°
2026-05-04 15:12 42.19223 -8.39041 26271 ft 440 kts 32°
2026-05-04 15:12 42.21708 -8.36589 26672 ft 444 kts 32°
2026-05-04 15:12 42.24216 -8.34119 27056 ft 448 kts 32°
2026-05-04 15:12 42.26744 -8.31629 27400 ft 453 kts 32°
2026-05-04 15:13 42.29306 -8.29104 27766 ft 457 kts 32°
2026-05-04 15:13 42.31873 -8.26569 28197 ft 459 kts 32°
2026-05-04 15:13 42.34457 -8.24016 28582 ft 462 kts 32°
2026-05-04 15:13 42.37063 -8.21436 28937 ft 466 kts 32°
2026-05-04 15:14 42.39681 -8.18843 29315 ft 468 kts 32°
2026-05-04 15:14 42.42311 -8.16233 29673 ft 470 kts 32°
2026-05-04 15:14 42.44959 -8.13604 30010 ft 473 kts 32°
2026-05-04 15:14 42.47623 -8.10958 30294 ft 476 kts 32°
2026-05-04 15:15 42.50300 -8.08294 30580 ft 478 kts 33°
2026-05-04 15:15 42.52973 -8.05631 30896 ft 480 kts 33°
2026-05-04 15:15 42.55648 -8.02962 31254 ft 479 kts 33°
2026-05-04 15:16 42.60990 -7.97623 32158 ft 474 kts 33°
2026-05-04 15:16 42.63640 -7.94971 32558 ft 473 kts 33°
2026-05-04 15:16 42.68924 -7.89677 33308 ft 471 kts 33°
2026-05-04 15:17 42.71554 -7.87037 33722 ft 469 kts 33°
2026-05-04 15:17 42.76756 -7.81809 34428 ft 466 kts 33°
2026-05-04 15:17 42.79363 -7.79184 34663 ft 467 kts 33°
2026-05-04 15:18 42.81976 -7.76551 34889 ft 468 kts 33°
2026-05-04 15:18 42.84596 -7.73908 35166 ft 467 kts 33°
2026-05-04 15:18 42.87199 -7.71279 35439 ft 466 kts 33°
2026-05-04 15:19 42.92398 -7.66020 35930 ft 466 kts 33°
2026-05-04 15:19 42.95011 -7.63373 36053 ft 469 kts 33°
2026-05-04 15:19 43.00271 -7.58037 36047 ft 471 kts 34°
2026-05-04 15:20 43.05487 -7.52729 36029 ft 464 kts 34°
2026-05-04 15:20 43.10657 -7.47457 36049 ft 463 kts 34°
2026-05-04 15:21 43.15789 -7.42215 36040 ft 463 kts 34°
2026-05-04 15:22 43.23566 -7.34250 36049 ft 464 kts 34°
2026-05-04 15:22 43.31290 -7.26312 36028 ft 465 kts 34°
2026-05-04 15:23 43.36461 -7.20985 36016 ft 465 kts 34°
2026-05-04 15:23 43.41629 -7.15648 36040 ft 465 kts 35°
2026-05-04 15:24 43.51976 -7.04927 36022 ft 466 kts 35°
2026-05-04 15:25 43.57147 -6.99550 36019 ft 466 kts 35°
2026-05-04 15:26 43.64907 -6.91460 36025 ft 465 kts 35°
2026-05-04 15:26 43.72626 -6.83387 36012 ft 465 kts 35°
2026-05-04 15:27 43.80366 -6.75266 36011 ft 465 kts 35°
2026-05-04 15:28 43.88092 -6.67135 36003 ft 465 kts 36°
2026-05-04 15:29 43.95807 -6.58983 36001 ft 465 kts 36°
2026-05-04 15:30 44.13752 -6.39920 35997 ft 464 kts 36°
2026-05-04 15:31 44.21427 -6.31721 36000 ft 463 kts 36°
2026-05-04 15:32 44.34185 -6.18030 35987 ft 462 kts 37°
2026-05-04 15:34 44.46900 -6.04308 35994 ft 461 kts 37°
2026-05-04 15:34 44.54509 -5.96060 35997 ft 461 kts 37°
2026-05-04 15:35 44.62118 -5.87784 36001 ft 461 kts 37°
2026-05-04 15:36 44.69568 -5.79240 35986 ft 462 kts 43°
2026-05-04 15:36 44.74121 -5.72862 35993 ft 462 kts 46°
2026-05-04 15:37 44.78590 -5.66348 35982 ft 462 kts 46°
2026-05-04 15:37 44.83087 -5.59860 35991 ft 463 kts 45°
2026-05-04 15:38 44.87611 -5.53397 35997 ft 463 kts 45°
2026-05-04 15:38 44.92145 -5.46930 35996 ft 464 kts 45°
2026-05-04 15:39 44.96684 -5.40445 35984 ft 464 kts 46°
2026-05-04 15:40 45.03448 -5.30737 35988 ft 463 kts 46°
2026-05-04 15:40 45.07960 -5.24243 35992 ft 463 kts 46°
2026-05-04 15:41 45.12468 -5.17740 35980 ft 463 kts 46°
2026-05-04 15:41 45.16979 -5.11215 35992 ft 463 kts 46°
2026-05-04 15:42 45.21475 -5.04700 35979 ft 462 kts 46°
2026-05-04 15:42 45.25968 -4.98177 35968 ft 461 kts 46°
2026-05-04 15:43 45.30447 -4.91655 35993 ft 461 kts 46°
2026-05-04 15:43 45.34918 -4.85125 35980 ft 461 kts 46°
2026-05-04 15:44 45.39383 -4.78586 35980 ft 460 kts 46°
2026-05-04 15:44 45.43833 -4.72057 35989 ft 460 kts 46°
2026-05-04 15:45 45.48292 -4.65500 35962 ft 460 kts 47°
2026-05-04 15:45 45.52739 -4.58947 35985 ft 460 kts 47°
2026-05-04 15:46 45.57148 -4.52431 35981 ft 459 kts 47°
2026-05-04 15:46 45.61584 -4.45857 35979 ft 459 kts 47°
2026-05-04 15:47 45.66013 -4.39279 35979 ft 459 kts 47°
2026-05-04 15:47 45.70441 -4.32688 35989 ft 459 kts 47°
2026-05-04 15:48 45.74866 -4.26086 35985 ft 460 kts 47°
2026-05-04 15:48 45.81496 -4.16160 35983 ft 459 kts 47°
2026-05-04 15:49 45.85913 -4.09529 35981 ft 459 kts 47°
2026-05-04 15:49 45.90315 -4.02903 35974 ft 458 kts 47°
2026-05-04 15:50 45.94711 -3.96271 35989 ft 458 kts 48°
2026-05-04 15:50 45.99098 -3.89636 35979 ft 458 kts 48°
2026-05-04 15:51 46.03447 -3.83040 35980 ft 457 kts 48°
2026-05-04 15:51 46.07818 -3.76395 35978 ft 457 kts 48°
2026-05-04 15:52 46.12193 -3.69731 35980 ft 457 kts 48°
2026-05-04 15:52 46.16555 -3.63065 35974 ft 457 kts 48°
2026-05-04 15:53 46.20923 -3.56376 35968 ft 458 kts 48°
2026-05-04 15:53 46.25286 -3.49682 35974 ft 458 kts 48°
2026-05-04 15:54 46.29648 -3.42971 35975 ft 458 kts 48°
2026-05-04 15:54 46.34008 -3.36252 35981 ft 458 kts 48°
2026-05-04 15:55 46.38369 -3.29510 35973 ft 459 kts 48°
2026-05-04 15:55 46.42732 -3.22747 35972 ft 459 kts 48°
2026-05-04 15:56 46.47055 -3.16029 35959 ft 458 kts 48°
2026-05-04 15:56 46.51430 -3.09213 35966 ft 458 kts 49°
2026-05-04 15:57 46.55736 -3.02493 35972 ft 457 kts 49°
2026-05-04 15:57 46.60056 -2.95731 35962 ft 456 kts 49°
2026-05-04 15:58 46.64365 -2.88970 35964 ft 455 kts 49°
2026-05-04 15:58 46.68649 -2.82229 35942 ft 453 kts 49°
2026-05-04 15:59 46.72199 -2.76630 35965 ft 452 kts 49°
2026-05-04 15:59 46.76468 -2.69882 35965 ft 452 kts 49°
2026-05-04 16:00 46.80736 -2.63119 35964 ft 453 kts 49°
2026-05-04 16:00 46.85009 -2.56329 35968 ft 455 kts 49°
2026-05-04 16:01 46.89290 -2.49510 35965 ft 455 kts 49°
2026-05-04 16:01 46.93578 -2.42664 35948 ft 457 kts 49°
2026-05-04 16:02 46.97872 -2.35791 35973 ft 458 kts 49°
2026-05-04 16:03 47.04329 -2.25425 35966 ft 460 kts 50°
2026-05-04 16:03 47.08615 -2.18521 35971 ft 461 kts 50°
2026-05-04 16:04 47.12934 -2.11542 35964 ft 462 kts 50°
2026-05-04 16:04 47.19402 -2.01064 35958 ft 461 kts 50°
2026-05-04 16:05 47.23691 -1.94090 35959 ft 459 kts 50°
2026-05-04 16:06 47.30096 -1.83643 35950 ft 457 kts 50°
2026-05-04 16:07 47.38587 -1.69729 35950 ft 455 kts 50°
2026-05-04 16:08 47.47015 -1.55848 35951 ft 453 kts 50°
2026-05-04 16:09 47.57497 -1.38482 35955 ft 455 kts 50°
2026-05-04 16:10 47.65922 -1.24441 35936 ft 456 kts 51°
2026-05-04 16:11 47.74358 -1.10305 35958 ft 458 kts 51°
2026-05-04 16:12 47.87045 -0.88908 35961 ft 461 kts 51°
2026-05-04 16:13 47.95517 -0.74523 35971 ft 462 kts 51°
2026-05-04 16:14 48.03996 -0.60049 35973 ft 464 kts 51°
2026-05-04 16:16 48.14579 -0.41873 35965 ft 465 kts 51°
2026-05-04 16:17 48.25153 -0.23582 35975 ft 463 kts 51°
2026-05-04 16:18 48.33532 -0.09004 35957 ft 458 kts 51°
2026-05-04 16:19 48.43927 0.09018 35966 ft 453 kts 51°
2026-05-04 16:20 48.54246 0.26923 35967 ft 454 kts 51°
2026-05-04 16:22 48.64613 0.45053 35950 ft 458 kts 51°
2026-05-04 16:23 48.77102 0.67064 35953 ft 460 kts 51°
2026-05-04 16:25 48.89580 0.89238 35965 ft 462 kts 51°
2026-05-04 16:26 49.04089 1.15256 35951 ft 456 kts 51°
2026-05-04 16:28 49.14261 1.33652 35936 ft 455 kts 51°
2026-05-04 16:29 49.28750 1.59414 35957 ft 462 kts 45°
2026-05-04 16:31 49.40506 1.76281 35948 ft 463 kts 45°
2026-05-04 16:32 49.54410 1.96777 35966 ft 461 kts 45°
2026-05-04 16:33 49.63626 2.10452 35949 ft 459 kts 45°
2026-05-04 16:34 49.70504 2.20712 35945 ft 458 kts 45°
2026-05-04 16:35 49.84212 2.41284 35936 ft 458 kts 46°
2026-05-04 16:36 49.91054 2.51616 35941 ft 459 kts 46°
2026-05-04 16:37 49.97880 2.61970 35943 ft 460 kts 46°
2026-05-04 16:38 50.07020 2.75903 35603 ft 458 kts 46°
2026-05-04 16:39 50.13727 2.86173 34545 ft 445 kts 46°
2026-05-04 16:39 50.18105 2.92904 33776 ft 440 kts 47°
2026-05-04 16:40 50.22432 2.99574 32962 ft 434 kts 47°
2026-05-04 16:40 50.26688 3.06157 32236 ft 427 kts 47°
2026-05-04 16:41 50.30878 3.12648 31526 ft 421 kts 47°
2026-05-04 16:41 50.37047 3.22240 30487 ft 412 kts 47°
2026-05-04 16:42 50.43795 3.30297 29339 ft 408 kts 25°
2026-05-04 16:43 50.49165 3.33053 28463 ft 403 kts 15°
2026-05-04 16:43 50.54497 3.35264 27749 ft 396 kts 14°
2026-05-04 16:43 50.57146 3.36368 27404 ft 392 kts 14°
2026-05-04 16:44 50.67514 3.40837 25995 ft 381 kts 15°
2026-05-04 16:45 50.72601 3.43070 25303 ft 377 kts 15°
2026-05-04 16:46 50.79292 3.46016 24391 ft 373 kts 15°
2026-05-04 16:46 50.84269 3.48215 23706 ft 369 kts 14°
2026-05-04 16:47 50.89194 3.50394 22945 ft 365 kts 15°
2026-05-04 16:47 50.94059 3.52553 22221 ft 359 kts 15°
2026-05-04 16:48 51.01186 3.55721 21201 ft 350 kts 15°
2026-05-04 16:48 51.03521 3.56761 20864 ft 347 kts 15°
2026-05-04 16:49 51.08137 3.58822 20209 ft 342 kts 15°
2026-05-04 16:49 51.12685 3.60857 19563 ft 337 kts 15°
2026-05-04 16:50 51.17176 3.62869 18916 ft 333 kts 15°
2026-05-04 16:50 51.21608 3.64858 18269 ft 329 kts 16°
2026-05-04 16:51 51.25636 3.67907 17654 ft 321 kts 36°
2026-05-04 16:51 51.27446 3.70038 17370 ft 317 kts 36°
2026-05-04 16:51 51.30942 3.74128 16874 ft 312 kts 36°
2026-05-04 16:52 51.34464 3.78202 16375 ft 312 kts 36°
2026-05-04 16:52 51.36227 3.80233 16130 ft 312 kts 36°
2026-05-04 16:53 51.39571 3.84578 15609 ft 310 kts 54°
2026-05-04 16:53 51.42249 3.93905 14861 ft 307 kts 67°
2026-05-04 16:54 51.43080 3.97055 14611 ft 306 kts 66°
2026-05-04 16:55 51.46450 4.09558 13603 ft 307 kts 66°
2026-05-04 16:55 51.48158 4.15789 13071 ft 302 kts 66°
2026-05-04 16:56 51.49832 4.21900 12576 ft 296 kts 66°
2026-05-04 16:56 51.52288 4.30872 11869 ft 291 kts 66°
2026-05-04 16:57 51.53096 4.33837 11636 ft 290 kts 66°
2026-05-04 16:57 51.54706 4.39751 11175 ft 288 kts 66°
2026-05-04 16:58 51.57106 4.48596 10478 ft 288 kts 66°
2026-05-04 16:58 51.57905 4.51550 10239 ft 288 kts 66°
2026-05-04 16:59 51.59497 4.57446 9754 ft 287 kts 66°
2026-05-04 17:00 51.62635 4.69116 8795 ft 281 kts 66°
2026-05-04 17:00 51.64933 4.77694 8117 ft 276 kts 66°
2026-05-04 17:01 51.66444 4.83337 7684 ft 273 kts 67°
2026-05-04 17:01 51.67934 4.88932 7253 ft 271 kts 66°
2026-05-04 17:02 51.68651 4.94787 6845 ft 270 kts 91°
2026-05-04 17:02 51.68494 5.00823 6427 ft 270 kts 92°
2026-05-04 17:03 51.68401 5.03848 6203 ft 270 kts 92°
2026-05-04 17:03 51.68305 5.06876 5982 ft 269 kts 92°
2026-05-04 17:03 51.68111 5.12838 5568 ft 265 kts 92°
2026-05-04 17:04 51.67871 5.18741 5143 ft 263 kts 101°
2026-05-04 17:04 51.66796 5.24285 4729 ft 261 kts 108°
2026-05-04 17:05 51.65669 5.29846 4299 ft 261 kts 107°
2026-05-04 17:05 51.64568 5.35312 3951 ft 246 kts 108°
2026-05-04 17:06 51.63593 5.40288 3741 ft 220 kts 108°
2026-05-04 17:06 51.63145 5.42579 3600 ft 211 kts 108°
2026-05-04 17:07 51.62218 5.46948 3227 ft 202 kts 121°
2026-05-04 17:07 51.61596 5.48058 3096 ft 201 kts 145°
2026-05-04 17:07 51.59901 5.49099 2925 ft 195 kts 162°
2026-05-04 17:07 51.58606 5.49602 2775 ft 191 kts 179°
2026-05-04 17:08 51.57305 5.49457 2680 ft 185 kts 181°
2026-05-04 17:08 51.54918 5.48652 2261 ft 176 kts 221°
2026-05-04 17:08 51.53942 5.47402 2021 ft 183 kts 213°
2026-05-04 17:09 51.52893 5.46285 1781 ft 179 kts 214°
2026-05-04 17:09 51.51876 5.45158 1546 ft 173 kts 215°
2026-05-04 17:09 51.50930 5.44094 1329 ft 162 kts 215°
2026-05-04 17:10 51.49191 5.42142 891 ft 151 kts 215°
2026-05-04 17:10 51.46653 5.39295 306 ft 146 kts 214°
2026-05-04 17:11 51.45831 5.38365 100 ft 144 kts 215°
2026-05-04 17:11 51.45097 5.37545 65 ft 102 kts 215°
2026-05-04 17:11 51.44384 5.36744 71 ft 36 kts 214°
2026-05-04 17:12 51.44221 5.36565 69 ft 25 kts 214°
2026-05-04 17:12 51.44130 5.36364 67 ft 9 kts 297°
2026-05-04 17:13 51.44284 5.36358 74 ft 13 kts 35°
2026-05-04 17:14 51.44565 5.36672 73 ft 20 kts 35°
2026-05-04 17:14 51.44675 5.36794 72 ft 19 kts 35°
2026-05-04 17:14 51.44883 5.37027 69 ft 18 kts 35°
2026-05-04 17:15 51.44983 5.37138 74 ft 17 kts 34°
2026-05-04 17:15 51.45171 5.37349 71 ft 16 kts 35°
2026-05-04 17:16 51.45345 5.37543 68 ft 15 kts 35°
2026-05-04 17:16 51.45575 5.37802 70 ft 13 kts 35°
2026-05-04 17:17 51.45648 5.37884 71 ft 13 kts 35°
2026-05-04 17:17 51.45853 5.38114 65 ft 12 kts 35°
2026-05-04 17:18 51.45919 5.38188 69 ft 11 kts 35°
2026-05-04 17:18 51.45981 5.38352 66 ft 10 kts 123°
2026-05-04 17:19 51.45897 5.38539 71 ft 12 kts 126°
2026-05-04 17:19 51.45807 5.38745 71 ft 10 kts 125°
2026-05-04 17:20 51.45776 5.38883 68 ft 4 kts 124°
2026-05-04 17:20 51.45757 5.38928 74 ft 1 kts 125°
2026-05-04 17:20 51.45753 5.38937 67 ft 1 kts 125°
2026-05-04 17:21 51.45752 5.38939 74 ft 0 kts 125°